Wind_Speed
14 14 14 13 12 10 9 9 9 9 9 9 10 10 10 10 11 12 12 14 14 15 15 16 16 16 16 17 17 17 18 18 18 19 20 22 23 23 24 24 25 25 26
15 15 14 13 12 12 11 10 11 12 11 11 11 11 11 11 12 12 13 14 15 15 16 17 17 18 18 18 18 18 19 20 20 21 22 23 24 24 25 26 26 27 27
16 15 15 14 14 13 12 12 12 12 12 12 12 12 12 12 13 13 14 15 16 16 17 17 18 18 18 18 19 20 20 21 22 22 23 24 25 26 26 27 27 28 29
17 17 16 15 15 14 14 13 13 13 13 13 13 13 13 13 14 15 15 16 17 17 18 18 19 20 20 20 21 21 22 23 24 24 25 26 27 27 27 28 28 29 29
18 18 17 17 17 16 15 15 14 14 14 14 14 14 14 15 15 15 16 16 17 18 18 19 19 20 21 21 22 23 24 24 25 26 27 27 27 28 28 29 29 30 30
19 19 19 19 18 18 17 16 16 16 16 16 15 16 15 15 16 16 16 16 17 18 19 19 20 21 22 22 23 24 25 25 26 26 27 28 29 29 29 29 30 31 31
20 20 20 20 20 19 19 18 18 18 17 17 17 17 17 17 17 17 17 18 18 18 20 21 22 22 23 23 24 24 25 26 26 26 27 27 28 29 30 30 31 31 31
20 21 20 21 21 21 20 20 20 19 19 18 18 19 19 18 18 18 18 19 19 19 20 21 22 23 24 24 25 26 26 26 26 27 27 28 29 29 30 30 31 31 31
22 22 22 22 22 22 22 21 20 20 20 20 20 20 20 19 19 20 20 20 20 21 21 22 23 24 24 25 26 27 27 27 28 28 29 30 31 31 31 31 32 32 32
24 24 24 24 24 24 23 22 22 22 22 22 21 21 20 21 21 21 21 21 22 22 23 24 24 24 25 26 27 28 28 28 29 30 31 31 31 32 32 32 31 32 32
26 26 26 25 26 25 24 24 23 23 23 23 23 22 22 22 22 22 23 23 23 23 24 24 26 26 27 28 29 29 29 30 31 31 31 31 32 32 32 32 32 32 32
27 27 26 26 26 25 25 25 24 24 24 24 23 23 24 23 23 23 24 25 25 25 25 26 27 27 28 29 30 30 30 31 31 32 32 32 32 32 32 33 33 33 33
27 26 26 26 26 25 25 25 25 24 24 24 24 25 25 25 25 25 25 25 26 26 26 27 27 28 28 29 30 30 31 31 31 32 32 33 33 33 33 33 33 34 34
27 27 26 27 26 26 26 26 26 26 26 26 26 26 26 25 25 26 26 27 27 27 28 28 29 29 29 30 30 31 32 32 32 33 33 34 34 33 33 34 34 34 34
28 28 28 27 27 27 26 26 27 27 27 27 27 27 26 26 26 27 27 27 28 28 29 29 29 30 30 31 31 31 32 33 33 33 33 33 33 33 34 34 34 34 33
28 28 28 27 27 27 27 27 28 28 28 27 27 26 27 27 27 28 28 28 28 29 29 29 30 31 31 31 32 32 33 33 33 33 33 33 33 33 33 33 33 33 33
29 28 28 28 28 28 28 28 29 29 29 28 27 27 27 27 28 29 29 29 29 29 30 31 31 32 32 32 32 32 33 33 34 34 34 34 34 33 33 33 33 33 32
30 29 29 29 29 29 29 29 29 29 28 28 28 27 28 28 29 30 30 29 30 30 30 31 31 32 32 32 32 32 33 33 33 33 33 33 33 32 32 32 32 32 31
30 30 30 29 30 30 30 30 29 29 28 28 28 28 28 29 30 30 30 29 30 30 30 30 31 31 31 31 31 32 33 33 33 32 31 31 31 31 31 31 32 31 31
31 31 30 30 31 30 30 30 29 29 29 29 29 29 29 29 30 30 30 30 30 30 31 31 31 31 31 32 32 32 32 31 30 30 30 30 30 30 31 31 31 32 32
30 30 30 30 30 29 29 29 29 29 29 29 29 29 29 30 30 30 30 30 30 30 31 31 30 30 31 31 31 31 31 30 29 29 30 30 30 30 31 31 31 31 31
30 29 29 29 28 28 28 28 29 29 29 29 29 29 29 29 29 30 30 31 31 31 31 31 31 31 30 30 30 30 30 29 29 29 30 30 30 30 30 31 31 31 31
29 29 29 28 28 28 28 28 28 28 29 29 29 29 29 30 30 30 31 31 31 30 31 31 30 30 30 30 30 30 30 30 30 30 30 30 30 31 31 31 31 31 32
29 28 28 28 27 27 27 28 28 29 29 29 29 29 30 30 30 31 31 30 30 30 30 30 29 29 30 31 31 30 31 31 30 31 31 31 31 31 31 31 31 31 31
28 27 27 27 26 26 27 28 28 29 29 29 29 29 30 30 30 30 30 29 29 29 29 29 30 30 31 31 31 31 31 31 31 31 31 31 31 31 31 31 32 32 32
26 27 27 26 26 26 27 28 28 28 28 28 29 28 29 29 29 29 29 29 29 29 29 29 30 30 31 31 31 31 31 32 32 32 32 31 31 32 32 32 33 33 34
Wind_Direction
358 356 351 348 344 338 330 319 312 306 300 294 292 289 288 286 281 278 278 276 275 276 276 276 275 276 278 281 284 285 285 283 282 283 284 284 285 286 285 284 283 284 283
355 355 352 350 345 339 331 321 313 308 302 297 296 294 289 289 289 283 280 279 277 276 277 277 277 278 280 282 284 285 285 285 283 284 285 286 286 286 286 285 284 285 285
350 350 349 345 340 336 330 322 317 313 309 303 298 295 291 290 292 293 286 284 281 279 278 277 278 278 280 281 283 284 285 284 283 283 284 286 287 286 285 286 286 287 287
342 342 343 342 338 335 330 323 319 317 315 308 302 296 291 291 293 294 291 289 285 282 281 281 279 280 280 281 283 283 283 284 284 285 286 287 287 287 287 287 288 288 288
334 335 336 334 333 331 329 325 320 317 314 312 309 305 297 294 294 295 296 294 292 287 285 284 283 283 283 284 283 284 285 285 286 288 289 289 289 288 289 289 289 289 288
329 329 330 328 328 327 326 326 323 318 314 309 309 311 305 299 297 296 298 298 296 293 290 287 285 285 286 287 286 286 287 287 288 289 290 291 291 291 291 291 291 290 289
321 322 322 322 322 322 321 320 319 317 312 310 309 309 306 302 300 297 296 295 294 294 293 290 287 285 285 286 287 286 288 289 290 290 290 292 293 293 292 291 291 290 289
316 317 317 316 316 316 317 315 314 315 312 308 307 306 304 302 301 299 298 297 294 294 295 293 291 289 289 289 288 288 289 292 292 293 293 293 293 293 293 291 291 291 291
312 313 313 313 312 312 311 310 310 310 309 308 307 305 303 301 300 299 297 297 296 296 295 294 293 294 294 295 295 293 293 294 294 294 294 294 294 294 293 291 292 291 290
309 310 311 310 309 308 307 306 305 306 305 305 305 304 304 302 300 298 297 297 296 294 294 294 294 294 294 296 296 296 294 294 294 294 293 294 294 294 293 292 291 289 289
307 307 309 308 308 306 305 304 303 302 303 303 303 302 302 301 299 298 298 298 297 296 295 296 297 297 297 297 296 296 294 294 294 294 294 294 294 294 294 292 291 290 288
305 305 306 305 306 305 304 303 302 302 302 302 300 300 300 300 299 297 297 299 300 299 298 298 298 298 298 299 298 297 295 295 295 296 295 295 295 294 293 292 290 289 288
304 304 304 304 304 303 303 302 302 303 303 301 300 301 302 302 302 300 299 299 299 299 299 299 299 299 299 299 298 297 297 296 296 296 295 296 295 294 293 292 290 289 289
303 302 303 302 301 301 301 301 301 301 302 301 300 301 302 302 302 302 301 301 300 300 300 299 299 299 300 300 299 298 297 297 296 296 296 296 296 295 294 292 291 289 289
302 301 301 300 299 300 301 301 301 301 301 301 301 300 301 302 302 302 301 301 301 302 301 300 300 300 301 301 301 300 298 297 296 296 296 296 296 295 294 292 292 291 290
301 301 301 301 300 300 300 301 301 301 301 300 300 300 301 301 302 303 302 302 301 302 302 302 302 302 301 301 300 300 299 298 297 297 297 296 295 295 294 293 292 291 291
300 300 301 301 300 299 300 300 301 301 300 300 300 300 301 301 301 303 303 302 302 302 303 302 302 302 302 301 299 299 299 298 297 297 296 296 296 295 294 293 293 292 291
297 299 299 299 299 299 299 299 299 301 301 300 299 300 301 302 302 303 303 302 302 301 303 303 302 301 301 301 300 299 298 298 298 297 296 295 296 296 295 294 294 294 293
296 297 297 297 297 297 298 297 298 300 301 300 299 301 302 302 303 303 304 303 302 301 302 303 303 301 301 301 300 299 299 298 298 298 297 297 297 297 296 295 295 294 293
296 296 296 297 297 297 297 298 299 300 300 300 299 300 301 302 303 303 303 302 302 302 302 302 303 302 301 301 301 302 301 301 300 300 300 300 299 299 297 297 296 296 295
296 296 297 297 297 298 299 299 299 300 299 299 300 301 301 301 302 302 302 302 302 302 302 301 302 302 301 302 302 303 303 302 301 301 301 300 301 300 299 298 296 296 296
295 296 297 298 298 298 298 299 299 299 300 300 300 301 301 301 301 302 303 303 303 303 302 302 302 302 302 303 303 304 303 303 302 301 300 300 301 301 300 299 298 298 297
295 295 296 297 297 297 297 298 299 299 300 300 301 301 302 302 302 303 303 304 304 304 303 303 303 303 303 304 304 305 304 304 303 302 301 301 300 300 300 300 300 300 299
293 295 296 297 296 295 296 298 299 300 301 302 302 302 303 304 304 303 303 304 304 303 303 303 303 303 304 305 306 306 305 304 304 303 301 301 301 300 301 301 301 301 300
292 293 295 295 295 296 297 298 300 301 301 301 302 302 302 303 304 304 304 304 305 305 304 304 303 304 306 306 306 306 305 304 304 304 302 302 302 301 301 301 301 300 299
292 293 294 295 296 297 298 299 300 301 302 302 303 303 304 305 305 305 305 305 305 306 306 306 306 307 307 307 306 306 305 305 304 303 303 303 302 303 302 302 301 299 299
Height
5896 5894 5891 5889 5887 5885 5884 5882 5881 5879 5878 5877 5875 5874 5873 5872 5871 5870 5869 5868 5868 5867 5867 5866 5866 5865 5864 5863 5861 5860 5859 5858 5856 5855 5853 5852 5850 5848 5847 5845 5843 5841 5839
5895 5893 5890 5888 5886 5884 5882 5880 5878 5877 5875 5873 5872 5871 5870 5869 5867 5866 5865 5864 5863 5863 5862 5861 5861 5860 5859 5858 5856 5855 5853 5852 5851 5849 5847 5846 5844 5842 5840 5838 5836 5834 5832
5894 5891 5889 5887 5884 5882 5880 5878 5876 5874 5872 5870 5869 5868 5866 5865 5864 5862 5861 5860 5859 5858 5857 5856 5855 5854 5853 5852 5851 5849 5848 5846 5845 5843 5841 5839 5837 5835 5833 5831 5829 5827 5824
5892 5890 5887 5885 5882 5880 5877 5875 5873 5871 5869 5867 5866 5864 5863 5861 5860 5858 5857 5855 5854 5853 5852 5851 5850 5849 5848 5846 5845 5843 5842 5840 5838 5836 5834 5832 5830 5828 5825 5823 5821 5819 5816
5890 5888 5885 5883 5880 5878 5875 5872 5870 5868 5866 5864 5862 5860 5859 5857 5855 5854 5852 5850 5849 5848 5846 5845 5844 5843 5841 5840 5839 5837 5835 5833 5831 5829 5827 5825 5822 5820 5818 5815 5813 5810 5807
5888 5885 5883 5880 5877 5875 5872 5869 5867 5865 5863 5861 5859 5857 5855 5853 5851 5849 5847 5845 5844 5842 5841 5839 5838 5837 5835 5833 5832 5830 5828 5826 5824 5822 5820 5817 5815 5812 5809 5807 5804 5802 5799
5885 5882 5879 5877 5874 5871 5869 5866 5863 5861 5859 5857 5855 5852 5850 5848 5846 5844 5842 5840 5839 5837 5835 5834 5832 5830 5828 5827 5825 5823 5821 5819 5817 5814 5812 5809 5807 5804 5801 5799 5796 5793 5790
5880 5878 5875 5872 5870 5867 5865 5862 5859 5857 5854 5852 5850 5848 5846 5843 5841 5839 5837 5835 5833 5831 5829 5828 5826 5824 5822 5820 5818 5816 5814 5811 5809 5806 5804 5801 5799 5796 5793 5790 5787 5784 5781
5875 5873 5870 5868 5865 5863 5860 5858 5855 5852 5850 5848 5845 5843 5841 5838 5836 5834 5832 5830 5828 5826 5823 5822 5820 5818 5816 5813 5811 5808 5806 5803 5801 5798 5795 5793 5790 5787 5784 5781 5778 5775 5772
5871 5868 5865 5863 5860 5857 5855 5852 5850 5847 5845 5843 5840 5838 5835 5833 5831 5828 5826 5824 5822 5819 5817 5815 5813 5811 5808 5806 5804 5801 5798 5796 5793 5790 5787 5784 5781 5778 5775 5772 5769 5766 5763
5865 5863 5860 5857 5854 5851 5849 5847 5844 5842 5839 5837 5835 5832 5830 5827 5824 5822 5820 5818 5815 5813 5810 5808 5806 5803 5801 5798 5796 5793 5790 5787 5784 5781 5778 5775 5772 5769 5766 5763 5760 5757 5754
5859 5856 5853 5851 5848 5846 5843 5840 5838 5835 5833 5830 5828 5826 5824 5821 5818 5815 5813 5811 5809 5806 5804 5801 5798 5796 5793 5790 5787 5784 5781 5778 5775 5772 5769 5766 5763 5759 5756 5753 5750 5747 5744
5853 5850 5847 5845 5842 5839 5837 5834 5832 5829 5827 5825 5822 5820 5817 5814 5812 5809 5807 5804 5801 5799 5796 5793 5790 5787 5785 5782 5779 5776 5773 5769 5766 5763 5760 5756 5753 5750 5746 5743 5740 5737 5734
5847 5844 5840 5838 5835 5833 5830 5828 5826 5823 5821 5818 5816 5813 5810 5808 5805 5802 5799 5797 5794 5791 5788 5785 5782 5779 5776 5773 5770 5767 5764 5760 5757 5754 5750 5747 5743 5740 5736 5733 5730 5727 5724
5840 5837 5834 5831 5829 5826 5824 5821 5819 5816 5814 5811 5808 5806 5803 5801 5798 5795 5792 5789 5786 5783 5780 5777 5774 5771 5768 5764 5761 5758 5754 5751 5747 5744 5741 5737 5734 5730 5727 5723 5720 5717 5714
5833 5830 5827 5825 5822 5819 5817 5814 5812 5809 5807 5804 5801 5799 5796 5793 5790 5787 5784 5781 5778 5775 5772 5768 5765 5762 5759 5755 5752 5748 5745 5741 5738 5734 5731 5727 5724 5721 5717 5714 5710 5707 5704
5826 5823 5821 5818 5815 5812 5810 5807 5804 5802 5799 5796 5794 5791 5788 5785 5782 5779 5776 5773 5769 5766 5763 5759 5756 5753 5749 5746 5742 5739 5735 5732 5728 5725 5721 5718 5714 5711 5707 5704 5700 5697 5694
5818 5816 5813 5810 5808 5805 5802 5799 5797 5794 5791 5788 5786 5783 5780 5777 5774 5771 5768 5764 5761 5757 5754 5750 5747 5743 5740 5736 5733 5729 5726 5722 5719 5715 5711 5708 5704 5701 5697 5694 5691 5688 5685
5810 5807 5805 5802 5800 5797 5794 5791 5789 5786 5783 5780 5778 5775 5772 5769 5766 5762 5759 5756 5752 5749 5745 5742 5738 5734 5731 5727 5723 5720 5716 5713 5709 5705 5702 5698 5695 5691 5688 5685 5682 5678 5675
5802 5799 5796 5794 5791 5788 5786 5783 5780 5778 5775 5772 5769 5767 5764 5761 5757 5754 5751 5747 5744 5740 5736 5733 5729 5725 5722 5718 5714 5711 5707 5703 5700 5696 5692 5689 5686 5682 5679 5675 5672 5669 5666
5793 5791 5788 5785 5783 5780 5777 5775 5772 5770 5767 5764 5761 5758 5755 5752 5749 5746 5742 5739 5735 5731 5728 5724 5720 5717 5713 5709 5706 5702 5698 5694 5691 5687 5684 5680 5677 5673 5670 5666 5663 5659 5656
5785 5782 5780 5777 5775 5772 5769 5767 5764 5761 5758 5756 5753 5750 5746 5743 5740 5737 5734 5730 5727 5723 5719 5715 5711 5708 5704 5701 5697 5694 5690 5686 5682 5679 5675 5671 5668 5664 5661 5657 5654 5650 5647
5777 5775 5772 5770 5767 5764 5761 5759 5756 5753 5751 5748 5745 5742 5738 5735 5732 5728 5725 5722 5718 5714 5710 5706 5703 5699 5696 5692 5688 5685 5681 5677 5673 5670 5666 5663 5659 5655 5652 5648 5644 5641 5638
5769 5767 5764 5762 5759 5756 5753 5751 5748 5746 5743 5739 5736 5733 5730 5727 5723 5720 5716 5713 5709 5705 5702 5698 5694 5691 5687 5684 5680 5676 5672 5668 5664 5661 5657 5654 5650 5646 5642 5639 5635 5632 5628
5761 5759 5756 5754 5751 5748 5746 5743 5740 5737 5734 5731 5728 5725 5721 5718 5715 5711 5708 5704 5701 5697 5693 5690 5686 5682 5679 5675 5671 5667 5663 5659 5656 5652 5648 5644 5640 5637 5633 5629 5626 5622 5619
5752 5750 5748 5746 5744 5741 5738 5735 5732 5729 5726 5723 5720 5716 5713 5710 5706 5703 5699 5696 5693 5689 5685 5681 5678 5674 5670 5666 5662 5658 5654 5650 5646 5643 5639 5635 5631 5627 5624 5620 5616 5613 5609